| time (UTC) | temp F | wind direction | speed knots | gust knots | rain 1hr in | rain 24hr in | rain mn in | humidity % | barometer mb |
| 20260503200831 | 66 | 96 | 5.2 | 7.0 | 0.00 | 0.00 | 0.00 | 55 | 1007.0 |
| 20260503200326 | 66 | 99 | 4.3 | 7.0 | 0.00 | 0.00 | 0.00 | 55 | 1007.0 |
| 20260503195824 | 66 | 210 | 1.7 | 1.7 | 0.00 | 0.00 | 0.00 | 55 | 1007.0 |
| 20260503195320 | 66 | 115 | 4.3 | 5.2 | 0.00 | 0.00 | 0.00 | 56 | 1007.3 |
| 20260503194818 | 65 | 172 | 1.7 | 1.7 | 0.00 | 0.00 | 0.00 | 56 | 1007.3 |
| 20260503194314 | 65 | 75 | 4.3 | 7.0 | 0.00 | 0.00 | 0.00 | 55 | 1007.3 |
| 20260503193810 | 65 | 113 | 2.6 | 4.3 | 0.00 | 0.00 | 0.00 | 56 | 1007.0 |
| 20260503193306 | 65 | 103 | 3.5 | 7.0 | 0.00 | 0.00 | 0.00 | 55 | 1007.0 |
| 20260503192802 | 66 | 161 | 2.6 | 2.6 | 0.00 | 0.00 | 0.00 | 56 | 1007.3 |
| 20260503192257 | 66 | 161 | 2.6 | 2.6 | 0.00 | 0.00 | 0.00 | 53 | 1007.3 |
| 20260503191754 | 66 | 135 | 4.3 | 6.1 | 0.00 | 0.00 | 0.00 | 54 | 1007.3 |
| 20260503191251 | 65 | 126 | 4.3 | 6.1 | 0.00 | 0.00 | 0.00 | 55 | 1007.3 |
| 20260503190748 | 65 | 102 | 6.1 | 8.7 | 0.00 | 0.00 | 0.00 | 56 | 1007.3 |
| 20260503190245 | 65 | 47 | 3.5 | 6.1 | 0.00 | 0.00 | 0.00 | 57 | 1007.7 |
| 20260503185742 | 64 | 101 | 4.3 | 5.2 | 0.00 | 0.00 | 0.00 | 57 | 1007.7 |
| 20260503185238 | 63 | 144 | 3.5 | 4.3 | 0.00 | 0.00 | 0.00 | 58 | 1008.0 |
| 20260503184732 | 66 | 105 | 7.0 | 9.6 | 0.00 | 0.00 | 0.00 | 55 | 1008.0 |
| 20260503184229 | 65 | 70 | 3.5 | 6.1 | 0.00 | 0.00 | 0.00 | 58 | 1007.7 |
| 20260503183725 | 64 | 77 | 2.6 | 4.3 | 0.00 | 0.00 | 0.00 | 60 | 1008.0 |
| 20260503183223 | 63 | 103 | 4.3 | 5.2 | 0.00 | 0.00 | 0.00 | 59 | 1008.0 |
| 20260503182721 | 63 | 106 | 4.3 | 5.2 | 0.00 | 0.00 | 0.00 | 59 | 1008.0 |
| 20260503182219 | 63 | 99 | 5.2 | 7.0 | 0.00 | 0.00 | 0.00 | 57 | 1008.0 |
| 20260503181715 | 63 | 65 | 5.2 | 7.8 | 0.00 | 0.00 | 0.00 | 59 | 1008.0 |
| 20260503181213 | 63 | 43 | 6.1 | 7.8 | 0.00 | 0.00 | 0.00 | 59 | 1008.3 |
| 20260503180709 | 63 | 58 | 6.1 | 9.6 | 0.00 | 0.00 | 0.00 | 58 | 1008.3 |
| 20260503180208 | 63 | 132 | 6.1 | 11.3 | 0.00 | 0.00 | 0.00 | 59 | 1008.3 |
| 20260503175704 | 62 | 153 | 2.6 | 4.3 | 0.00 | 0.00 | 0.00 | 63 | 1008.7 |
| 20260503175202 | 62 | 64 | 8.7 | 13.9 | 0.00 | 0.00 | 0.00 | 59 | 1008.7 |
| 20260503174657 | 62 | 37 | 6.1 | 7.8 | 0.00 | 0.00 | 0.00 | 62 | 1008.7 |
| 20260503174155 | 62 | 148 | 4.3 | 7.8 | 0.00 | 0.00 | 0.00 | 62 | 1008.7 |
| 20260503173650 | 61 | 91 | 2.6 | 2.6 | 0.00 | 0.00 | 0.00 | 61 | 1008.7 |
| 20260503173146 | 62 | 109 | 4.3 | 6.1 | 0.00 | 0.00 | 0.00 | 61 | 1009.0 |
| 20260503172644 | 61 | 65 | 2.6 | 4.3 | 0.00 | 0.00 | 0.00 | 64 | 1009.0 |
| 20260503172141 | 60 | 44 | 3.5 | 6.1 | 0.00 | 0.00 | 0.00 | 64 | 1009.3 |
| 20260503171637 | 59 | 61 | 2.6 | 4.3 | 0.00 | 0.00 | 0.00 | 66 | 1009.3 |
| 20260503171135 | 60 | 46 | 7.0 | 8.7 | 0.00 | 0.00 | 0.00 | 63 | 1009.3 |
| 20260503170632 | 60 | 140 | 1.7 | 1.7 | 0.00 | 0.00 | 0.00 | 67 | 1009.3 |
| 20260503170128 | 58 | 44 | 4.3 | 6.1 | 0.00 | 0.00 | 0.00 | 67 | 1009.7 |
| 20260503150520 | 56 | 150 | 2.6 | 2.6 | 0.00 | 0.00 | 0.00 | 66 | 1010.8 |
| 20260503131413 | 53 | 173 | 0.9 | 1.7 | 0.00 | 0.00 | 0.00 | 65 | 1011.8 |
| 20260503130910 | 51 | 106 | 2.6 | 4.3 | 0.00 | 0.00 | 0.00 | 68 | 1011.8 |
| 20260503130407 | 51 | 136 | 1.7 | 2.6 | 0.00 | 0.00 | 0.00 | 68 | 1011.8 |
| 20260503110811 | 48 | 111 | 1.7 | 2.6 | 0.00 | 0.00 | 0.00 | 66 | 1011.8 |
| 20260503110308 | 48 | 110 | 0.9 | 0.9 | 0.00 | 0.00 | 0.00 | 66 | 1011.5 |
| 20260503100234 | 48 | 98 | 2.6 | 6.1 | 0.00 | 0.00 | 0.00 | 64 | 1012.2 |
| 20260503090159 | 49 | 208 | 2.6 | 4.3 | 0.00 | 0.00 | 0.00 | 63 | 1012.2 |
| 20260503081636 | 47 | 62 | 2.6 | 2.6 | 0.00 | 0.00 | 0.00 | 66 | 1012.8 |
| 20260503081132 | 47 | 74 | 1.7 | 1.7 | 0.00 | 0.00 | 0.00 | 66 | 1012.8 |
| 20260503080628 | 47 | 22 | 1.7 | 1.7 | 0.00 | 0.00 | 0.00 | 66 | 1013.2 |
| 20260503080125 | 47 | 24 | 0.9 | 0.9 | 0.00 | 0.00 | 0.00 | 67 | 1013.2 |
| 20260503072602 | 48 | 85 | 2.6 | 2.6 | 0.00 | 0.00 | 0.00 | 65 | 1013.2 |
| 20260503072059 | 48 | 77 | 1.7 | 1.7 | 0.00 | 0.00 | 0.00 | 66 | 1013.2 |
| 20260503071556 | 47 | 66 | 1.7 | 1.7 | 0.00 | 0.00 | 0.00 | 65 | 1013.2 |
| 20260503071053 | 47 | 26 | 0.9 | 1.7 | 0.00 | 0.00 | 0.00 | 65 | 1013.2 |
| 20260503070549 | 47 | 95 | 4.3 | 6.1 | 0.00 | 0.00 | 0.00 | 66 | 1013.2 |
| 20260503054843 | 46 | 64 | 0.9 | 0.9 | 0.00 | 0.00 | 0.00 | 66 | 1013.9 |
| 20260503054334 | 46 | 63 | 0.9 | 0.9 | 0.00 | 0.00 | 0.00 | 68 | 1013.9 |
| 20260503053832 | 45 | 347 | 0.9 | 0.9 | 0.00 | 0.00 | 0.00 | 69 | 1013.9 |
| 20260503053330 | 45 | 343 | 0.0 | 0.0 | 0.00 | 0.00 | 0.00 | 70 | 1014.3 |
| 20260503052826 | 44 | 8 | 2.6 | 2.6 | 0.00 | 0.00 | 0.00 | 70 | 1014.3 |
| 20260503052323 | 44 | 343 | 0.0 | 0.9 | 0.00 | 0.00 | 0.00 | 71 | 1014.3 |
| 20260503051819 | 44 | 343 | 0.0 | 0.0 | 0.00 | 0.00 | 0.00 | 72 | 1014.3 |
| 20260503051316 | 44 | 350 | 0.9 | 1.7 | 0.00 | 0.00 | 0.00 | 72 | 1014.3 |
| 20260503050812 | 43 | 343 | 0.0 | 0.0 | 0.00 | 0.00 | 0.00 | 73 | 1014.3 |
| 20260503050309 | 43 | 343 | 0.9 | 0.9 | 0.00 | 0.00 | 0.00 | 75 | 1014.3 |
| 20260503045807 | 42 | 343 | 0.0 | 0.9 | 0.00 | 0.00 | 0.00 | 78 | 1014.3 |
| 20260503045305 | 41 | 343 | 0.0 | 0.9 | 0.00 | 0.00 | 0.00 | 79 | 1014.3 |
| 20260503044800 | 41 | 343 | 0.0 | 0.0 | 0.00 | 0.00 | 0.00 | 79 | 1014.3 |
| 20260503044257 | 41 | 343 | 0.0 | 0.0 | 0.00 | 0.00 | 0.00 | 80 | 1014.6 |
| 20260503043755 | 41 | 343 | 0.0 | 0.0 | 0.00 | 0.00 | 0.00 | 81 | 1014.3 |
| 20260503043251 | 41 | 343 | 0.0 | 0.0 | 0.00 | 0.00 | 0.00 | 82 | 1014.3 |
| 20260503042747 | 41 | 343 | 0.0 | 0.0 | 0.00 | 0.00 | 0.00 | 83 | 1014.6 |
| 20260503042244 | 40 | 343 | 0.0 | 0.0 | 0.00 | 0.00 | 0.00 | 84 | 1014.6 |
| 20260503041739 | 40 | 343 | 0.0 | 0.0 | 0.00 | 0.00 | 0.00 | 83 | 1014.6 |
| 20260503041237 | 40 | 343 | 0.0 | 0.0 | 0.00 | 0.00 | 0.00 | 83 | 1014.6 |
| 20260503040735 | 40 | 343 | 0.0 | 0.0 | 0.00 | 0.00 | 0.00 | 83 | 1015.0 |
| 20260503040232 | 40 | 343 | 0.0 | 0.0 | 0.00 | 0.00 | 0.00 | 82 | 1015.0 |
| 20260503035729 | 41 | 343 | 0.0 | 0.0 | 0.00 | 0.00 | 0.00 | 82 | 1015.0 |
| 20260503035226 | 41 | 343 | 0.0 | 0.0 | 0.00 | 0.00 | 0.00 | 81 | 1014.6 |
| 20260503034724 | 41 | 343 | 0.0 | 0.0 | 0.00 | 0.00 | 0.00 | 80 | 1014.6 |
| 20260503034220 | 42 | 343 | 0.0 | 0.0 | 0.00 | 0.00 | 0.00 | 80 | 1015.0 |
| 20260503033718 | 42 | 343 | 0.0 | 0.0 | 0.00 | 0.00 | 0.00 | 80 | 1015.0 |
| 20260503033215 | 42 | 343 | 0.0 | 0.0 | 0.00 | 0.00 | 0.00 | 80 | 1015.0 |
| 20260503032714 | 42 | 343 | 0.0 | 0.0 | 0.00 | 0.00 | 0.00 | 80 | 1015.0 |
| 20260503032212 | 42 | 343 | 0.0 | 0.0 | 0.00 | 0.00 | 0.00 | 79 | 1015.3 |
| 20260503031708 | 42 | 343 | 0.9 | 0.9 | 0.00 | 0.00 | 0.00 | 78 | 1015.3 |
| 20260503031207 | 43 | 343 | 0.0 | 0.0 | 0.00 | 0.00 | 0.00 | 78 | 1015.0 |
| 20260503030702 | 43 | 343 | 0.9 | 0.9 | 0.00 | 0.00 | 0.00 | 77 | 1015.3 |
| 20260503030159 | 43 | 343 | 0.9 | 0.9 | 0.00 | 0.00 | 0.00 | 77 | 1015.3 |
| 20260503025656 | 43 | 343 | 0.0 | 0.9 | 0.00 | 0.00 | 0.00 | 77 | 1015.3 |
| 20260503025154 | 43 | 343 | 0.0 | 0.9 | 0.00 | 0.00 | 0.00 | 76 | 1015.6 |
| 20260503024650 | 43 | 343 | 0.0 | 0.9 | 0.00 | 0.00 | 0.00 | 76 | 1015.6 |
| 20260503024148 | 43 | 343 | 0.0 | 0.9 | 0.00 | 0.00 | 0.00 | 76 | 1015.6 |
| 20260503023644 | 43 | 343 | 1.7 | 1.7 | 0.00 | 0.00 | 0.00 | 76 | 1015.3 |
| 20260503023141 | 43 | 344 | 0.9 | 0.9 | 0.00 | 0.00 | 0.00 | 76 | 1015.6 |
| 20260503022637 | 43 | 343 | 0.0 | 0.0 | 0.00 | 0.00 | 0.00 | 75 | 1015.6 |
| 20260503022132 | 44 | 343 | 0.9 | 0.9 | 0.00 | 0.00 | 0.00 | 75 | 1015.6 |
| 20260503021629 | 44 | 343 | 0.9 | 0.9 | 0.00 | 0.00 | 0.00 | 74 | 1015.6 |
| 20260503021126 | 44 | 342 | 0.9 | 0.9 | 0.00 | 0.00 | 0.00 | 74 | 1015.3 |
| 20260503020623 | 44 | 342 | 0.0 | 0.9 | 0.00 | 0.00 | 0.00 | 74 | 1015.3 |
| 20260503020120 | 44 | 342 | 0.9 | 0.9 | 0.00 | 0.00 | 0.00 | 73 | 1015.3 |
| 20260503015617 | 44 | 342 | 0.9 | 0.9 | 0.00 | 0.00 | 0.00 | 73 | 1015.3 |
| 20260503015114 | 44 | 343 | 1.7 | 1.7 | 0.00 | 0.00 | 0.00 | 73 | 1015.3 |
| 20260503014609 | 45 | 343 | 0.9 | 0.9 | 0.00 | 0.00 | 0.00 | 72 | 1015.3 |
| 20260503014107 | 45 | 342 | 0.9 | 0.9 | 0.00 | 0.00 | 0.00 | 72 | 1015.3 |
| 20260503013605 | 46 | 342 | 0.9 | 0.9 | 0.00 | 0.00 | 0.00 | 71 | 1015.0 |
| 20260503013103 | 46 | 17 | 0.9 | 0.9 | 0.00 | 0.00 | 0.00 | 70 | 1015.0 |
| 20260503012600 | 46 | 340 | 0.9 | 0.9 | 0.00 | 0.00 | 0.00 | 70 | 1015.0 |
| 20260503012056 | 46 | 340 | 0.9 | 0.9 | 0.00 | 0.00 | 0.00 | 70 | 1015.0 |
| 20260503011552 | 46 | 341 | 2.6 | 2.6 | 0.00 | 0.00 | 0.00 | 69 | 1015.3 |
| 20260503011050 | 46 | 338 | 0.9 | 0.9 | 0.00 | 0.00 | 0.00 | 69 | 1015.0 |
| 20260503010546 | 47 | 339 | 1.7 | 1.7 | 0.00 | 0.00 | 0.00 | 70 | 1015.0 |
| 20260503010044 | 47 | 339 | 0.0 | 0.0 | 0.00 | 0.00 | 0.00 | 70 | 1015.3 |
| 20260503005540 | 47 | 340 | 0.9 | 0.9 | 0.00 | 0.00 | 0.00 | 70 | 1015.3 |
| 20260503005038 | 48 | 342 | 1.7 | 1.7 | 0.00 | 0.00 | 0.00 | 69 | 1015.3 |
| 20260503004534 | 48 | 338 | 1.7 | 1.7 | 0.00 | 0.00 | 0.00 | 70 | 1015.3 |
| 20260503004032 | 48 | 350 | 2.6 | 2.6 | 0.00 | 0.00 | 0.00 | 69 | 1015.3 |
| 20260503003528 | 48 | 339 | 1.7 | 1.7 | 0.00 | 0.00 | 0.00 | 69 | 1015.3 |
| 20260503003026 | 49 | 337 | 2.6 | 2.6 | 0.00 | 0.00 | 0.00 | 68 | 1015.3 |
| 20260503002523 | 49 | 349 | 2.6 | 2.6 | 0.00 | 0.00 | 0.00 | 67 | 1015.3 |
| 20260503002019 | 49 | 328 | 0.0 | 0.0 | 0.00 | 0.00 | 0.00 | 67 | 1015.3 |
| 20260503001516 | 49 | 335 | 1.7 | 1.7 | 0.00 | 0.00 | 0.00 | 67 | 1015.3 |
| 20260503001013 | 50 | 340 | 1.7 | 2.6 | 0.00 | 0.00 | 0.00 | 66 | 1015.3 |
| 20260503000511 | 50 | 10 | 3.5 | 5.2 | 0.00 | 0.00 | 0.00 | 65 | 1015.3 |
| 20260503000007 | 50 | 341 | 2.6 | 2.6 | 0.00 | 0.00 | 0.00 | 65 | 1015.6 |
| 20260502235504 | 50 | 21 | 3.5 | 4.3 | 0.00 | 0.00 | 0.00 | 64 | 1015.3 |
| 20260502235002 | 50 | 351 | 1.7 | 1.7 | 0.00 | 0.00 | 0.00 | 64 | 1015.6 |
| 20260502234458 | 50 | 339 | 0.9 | 1.7 | 0.00 | 0.00 | 0.00 | 65 | 1015.3 |
| 20260502233956 | 50 | 320 | 1.7 | 2.6 | 0.00 | 0.00 | 0.00 | 64 | 1015.6 |
| 20260502233456 | 50 | 15 | 2.6 | 2.6 | 0.00 | 0.00 | 0.00 | 64 | 1015.6 |
| 20260502232953 | 50 | 337 | 1.7 | 1.7 | 0.00 | 0.00 | 0.00 | 64 | 1015.6 |
| 20260502232450 | 50 | 1 | 1.7 | 2.6 | 0.00 | 0.00 | 0.00 | 64 | 1015.6 |
| 20260502231946 | 50 | 332 | 3.5 | 4.3 | 0.00 | 0.00 | 0.00 | 63 | 1015.6 |
| 20260502231444 | 50 | 350 | 3.5 | 5.2 | 0.00 | 0.00 | 0.00 | 63 | 1015.6 |
| 20260502230942 | 50 | 344 | 2.6 | 2.6 | 0.00 | 0.00 | 0.00 | 63 | 1016.0 |
| 20260502230439 | 51 | 4 | 3.5 | 4.3 | 0.00 | 0.00 | 0.00 | 62 | 1016.0 |
| 20260502225937 | 51 | 47 | 3.5 | 4.3 | 0.00 | 0.00 | 0.00 | 62 | 1016.0 |
| 20260502225433 | 51 | 354 | 2.6 | 2.6 | 0.00 | 0.00 | 0.00 | 61 | 1016.0 |
| 20260502224930 | 51 | 9 | 1.7 | 1.7 | 0.00 | 0.00 | 0.00 | 61 | 1016.0 |
| 20260502224426 | 51 | 353 | 2.6 | 2.6 | 0.00 | 0.00 | 0.00 | 60 | 1016.0 |
| 20260502223923 | 51 | 319 | 1.7 | 1.7 | 0.00 | 0.00 | 0.00 | 59 | 1016.3 |
| 20260502223421 | 51 | 23 | 3.5 | 4.3 | 0.00 | 0.00 | 0.00 | 59 | 1016.3 |
| 20260502222919 | 51 | 348 | 2.6 | 2.6 | 0.00 | 0.00 | 0.00 | 59 | 1016.0 |
| 20260502222416 | 50 | 342 | 0.9 | 1.7 | 0.00 | 0.00 | 0.00 | 59 | 1016.3 |
| 20260502221911 | 51 | 10 | 4.3 | 5.2 | 0.00 | 0.00 | 0.00 | 61 | 1016.3 |
| 20260502221408 | 51 | 36 | 6.1 | 7.8 | 0.00 | 0.00 | 0.00 | 57 | 1016.7 |
| 20260502220905 | 51 | 46 | 4.3 | 5.2 | 0.00 | 0.00 | 0.00 | 58 | 1016.3 |
| 20260502220401 | 52 | 4 | 4.3 | 4.3 | 0.00 | 0.00 | 0.00 | 58 | 1016.3 |
| 20260502215857 | 53 | 34 | 2.6 | 2.6 | 0.00 | 0.00 | 0.00 | 55 | 1016.7 |
| 20260502215355 | 54 | 61 | 4.3 | 5.2 | 0.00 | 0.00 | 0.00 | 55 | 1016.7 |
| 20260502214851 | 56 | 21 | 1.7 | 1.7 | 0.00 | 0.00 | 0.00 | 49 | 1016.3 |
| 20260502214348 | 56 | 267 | 1.7 | 1.7 | 0.00 | 0.00 | 0.00 | 48 | 1016.7 |
| 20260502213846 | 56 | 68 | 1.7 | 1.7 | 0.00 | 0.00 | 0.00 | 48 | 1016.7 |
| 20260502213343 | 56 | 251 | 1.7 | 1.7 | 0.00 | 0.00 | 0.00 | 46 | 1016.7 |
| 20260502212842 | 57 | 236 | 0.9 | 0.9 | 0.00 | 0.00 | 0.00 | 45 | 1016.7 |
| 20260502212340 | 58 | 85 | 2.6 | 2.6 | 0.00 | 0.00 | 0.00 | 45 | 1016.7 |
| 20260502211836 | 57 | 81 | 2.6 | 4.3 | 0.00 | 0.00 | 0.00 | 45 | 1016.7 |
| 20260502211331 | 57 | 22 | 1.7 | 1.7 | 0.00 | 0.00 | 0.00 | 46 | 1016.7 |
| 20260502210829 | 58 | 309 | 0.9 | 0.9 | 0.00 | 0.00 | 0.00 | 47 | 1017.0 |
| 20260502210327 | 58 | 86 | 2.6 | 2.6 | 0.00 | 0.00 | 0.00 | 47 | 1016.7 |
| 20260502205824 | 57 | 297 | 0.0 | 0.9 | 0.00 | 0.00 | 0.00 | 49 | 1017.0 |
| 20260502205319 | 55 | 267 | 0.9 | 1.7 | 0.00 | 0.00 | 0.00 | 47 | 1017.0 |
| 20260502204817 | 55 | 37 | 1.7 | 2.6 | 0.00 | 0.00 | 0.00 | 49 | 1017.0 |
| 20260502204314 | 55 | 165 | 0.9 | 1.7 | 0.00 | 0.00 | 0.00 | 50 | 1017.0 |
| 20260502203812 | 55 | 249 | 0.9 | 0.9 | 0.00 | 0.00 | 0.00 | 46 | 1017.0 |
| 20260502203309 | 54 | 271 | 0.9 | 0.9 | 0.00 | 0.00 | 0.00 | 47 | 1017.3 |
| 20260502202808 | 55 | 61 | 0.0 | 0.0 | 0.00 | 0.00 | 0.00 | 49 | 1017.3 |
| 20260502202307 | 55 | 199 | 0.9 | 1.7 | 0.00 | 0.00 | 0.00 | 47 | 1017.3 |
| 20260502201804 | 54 | 286 | 0.0 | 0.0 | 0.00 | 0.00 | 0.00 | 47 | 1017.3 |
| 20260502201300 | 55 | 230 | 0.9 | 1.7 | 0.00 | 0.00 | 0.00 | 48 | 1017.3 |